TimeMST,TemperatureF,Dew PointF,Humidity,Sea Level PressureIn,VisibilityMPH,Wind Direction,Wind SpeedMPH,Gust SpeedMPH,PrecipitationIn,Events,Conditions,WindDirDegrees,DateUTC
12:53 AM,18.0,-2.0,41,30.02,10.0,ENE,8.1,-,N/A,,Clear,60,2013-02-17 07:53:00
1:53 AM,19.9,-2.9,37,29.97,10.0,NNE,9.2,-,N/A,,Clear,30,2013-02-17 08:53:00
2:53 AM,21.0,-6.0,30,29.92,10.0,Variable,5.8,-,N/A,,Clear,0,2013-02-17 09:53:00
3:53 AM,19.0,-8.0,30,29.91,10.0,NNE,4.6,-,N/A,,Clear,20,2013-02-17 10:53:00
4:53 AM,15.1,-8.0,36,29.92,10.0,NE,8.1,-,N/A,,Clear,40,2013-02-17 11:53:00
5:53 AM,9.0,-9.0,44,29.97,10.0,SSW,3.5,-,N/A,,Clear,200,2013-02-17 12:53:00
6:53 AM,3.9,-11.9,48,29.98,10.0,ESE,5.8,-,N/A,,Clear,110,2013-02-17 13:53:00
7:53 AM,15.1,-11.0,31,29.90,10.0,East,3.5,-,N/A,,Clear,90,2013-02-17 14:53:00
8:53 AM,24.1,-9.0,23,29.84,10.0,Calm,Calm,-,N/A,,Clear,0,2013-02-17 15:53:00
9:53 AM,28.9,-11.9,17,29.77,10.0,South,8.1,-,N/A,,Clear,170,2013-02-17 16:53:00
10:53 AM,33.1,-9.0,16,29.70,10.0,West,16.1,25.3,N/A,,Clear,270,2013-02-17 17:53:00
11:53 AM,34.0,-7.1,17,29.66,10.0,West,16.1,25.3,N/A,,Clear,260,2013-02-17 18:53:00
12:53 PM,34.0,-8.0,16,29.63,10.0,SW,11.5,23.0,N/A,,Clear,230,2013-02-17 19:53:00
1:53 PM,35.1,-5.1,18,29.57,10.0,WSW,11.5,19.6,N/A,,Clear,250,2013-02-17 20:53:00
2:53 PM,33.1,-9.9,15,29.56,10.0,SW,15.0,25.3,N/A,,Clear,230,2013-02-17 21:53:00
3:53 PM,32.0,-7.1,18,29.55,10.0,SSW,9.2,-,N/A,,Clear,210,2013-02-17 22:53:00
4:53 PM,30.0,-7.1,20,29.59,10.0,West,15.0,21.9,N/A,,Clear,270,2013-02-17 23:53:00
5:53 PM,24.1,-4.0,29,29.68,10.0,West,8.1,-,N/A,,Clear,280,2013-02-18 00:53:00
6:53 PM,26.1,1.9,35,29.71,10.0,SW,12.7,26.5,N/A,,Mostly Cloudy,220,2013-02-18 01:53:00
7:53 PM,23.0,6.1,48,29.66,10.0,Variable,4.6,-,N/A,,Overcast,0,2013-02-18 02:53:00
8:53 PM,19.9,10.9,68,29.62,10.0,North,16.1,23.0,N/A,,Overcast,350,2013-02-18 03:53:00
9:05 PM,19.4,12.2,74,29.70,1.8,WNW,18.4,25.3,0.00,Snow,Light Snow,290,2013-02-18 04:05:00
9:09 PM,19.4,12.2,74,29.70,1.2,WNW,17.3,25.3,0.00,Snow,Light Snow,290,2013-02-18 04:09:00
9:17 PM,19.4,12.2,74,29.71,3.0,WNW,10.4,-,0.00,Snow,Light Snow,290,2013-02-18 04:17:00
9:29 PM,19.4,12.2,74,29.72,2.5,WNW,10.4,-,0.01,Snow,Light Snow,300,2013-02-18 04:29:00
9:36 PM,19.4,12.2,74,29.72,6.0,NW,6.9,-,0.01,Snow,Light Snow,310,2013-02-18 04:36:00
9:53 PM,19.0,9.0,65,29.60,10.0,NW,9.2,-,0.01,,Mostly Cloudy,320,2013-02-18 04:53:00
10:29 PM,17.6,12.2,79,29.71,5.0,NNW,10.4,16.1,0.00,Snow,Light Snow,340,2013-02-18 05:29:00
10:50 PM,17.6,12.2,79,29.70,8.0,Calm,Calm,-,0.00,Snow,Light Snow,0,2013-02-18 05:50:00
10:53 PM,18.0,12.0,78,29.56,9.0,Calm,Calm,-,0.00,,Overcast,0,2013-02-18 05:53:00
11:43 PM,15.8,10.4,79,29.70,1.8,NNW,17.3,21.9,0.00,Snow,Light Snow,340,2013-02-18 06:43:00
11:51 PM,14.0,10.4,86,29.70,1.2,North,19.6,29.9,0.00,Snow,Light Snow,360,2013-02-18 06:51:00
11:53 PM,14.0,9.0,80,29.58,1.2,North,19.6,29.9,0.00,Snow,Light Snow,360,2013-02-18 06:53:00